STARLINK-11469, 62227

Orbit data source: Space-Track

STARLINK-11469, 62227 is a payload satellite owned by SpaceX/Seattle (US) in LEO that was launched on Thu, 05 Dec 2024 UTC via an FALCON 9 launch vehicle from the Air Force Western Test Range (AFWTR). Payload-class satellites include a variety of spacecraft equipped with specific instruments for various scientific and technological missions. These include communications satellites like Starlink; space stations such as the ISS; scientific satellites like the Hubble; Earth observation satellites from companies like Planet Labs, Umbra, and HawkEye 360; GPS; miniature CubeSats for education and research; and military/defense satellites.

Loading next visibility...
Identifier
62227, 2024-231K
Orbit
LEO
Country
Flag of USUS
Related business
Manufacturer
SpaceX/Seattle
Mission
Operational Commercial Communications
Bus & Motor
STARLINK V2MD, Unknown motor
Mass
960 kg wet, ~910 kg dry
Launch date (UTC)
2024-12-05 (11 months ago)
Launch vehicle
FALCON 9
Launch site
Air Force Western Test Range (AFWTR)
Object type
Payload
Rocket body
Debris
Shape & HBR
Box + 2 Pan, 18.1 m
Radar Cross Section
36.964 m², Large (>1 m²)

Expand to show TLE details & history
Last TLE update: 14 hours ago

TLE from 14 hours ago
0 STARLINK-11469
1 62227U 24231K   25293.56321992  .00202190  00000-0  16270-2 0  9991
2 62227  53.1563  71.9929 0001136  88.9174 271.1974 15.69804804 51405
Epoch: 2025-10-20T13:31Z
TLE epoch observation values (Epoch: 2025-10-20T13:31:02.201Z)
Latitude
-0.00001°
Longitude
-160.03001°
Altitude
360.354 km
Speed
7.694 km/s
True Right ascension
04h 47m 58s
True Declination
0° 00' 00"
Sunlit
Object was in full shadow at epoch
Visualization orbit readout
Latitude
Unknown
Longitude
Unknown
Altitude
Unknown
Speed
Unknown
Apparent Right ascension
Unknown
Apparent Declination
Unknown
Sunlit
N/A
Visualization observer readout
Local Sidereal Time
22:18:15
Azimuth
Unknown
Elevation
Unknown
Doppler factor
Unknown
Orbital elements
Apogee altitude
360.482 km
Perigee altitude
358.951 km
Semi-major axis
6,737.854 km
Eccentricity
0.00011
Inclination
53.1563°
RAAN
71.9929°
Arg. of periapsis
88.9174°
True anomaly
271.18439°
Mean anomaly
271.1974°
Eccentric anomaly
271.19089°
Mean motion
3.92429 °/min
Orbital period
91.74 mins
BSTAR
0.001627
Loading maneuver chart data...
Computing Atmospheric mass density...
Loading historical data...
Loading historical data...
Loading historical data...
Loading historical data...
Loading historical data...
Loading historical data...
Loading historical data...

Documentation

Showing up to 5 results
|